Retour au catalogue

HULIANWANG DIGUI-168

ActifCommunicationsPO
NORAD 68660·PAYLOAD·🇨🇳 China

Lancé Apr 8, 2026 depuis Taiyuan Satellite Launch Center

Loading…

Prochains Passages (prochaines 24 heures)

TLE

FraisSource: Space-Track

Époque: Sep 14, 2026, 22:09 UTC

1 68660U 26076E   26257.92343860  .00000017  00000-0  65714-5 0  9990
2 68660  86.5025  13.5523 0001284 108.8939 251.2334 13.24407249 21241

Suivez HULIANWANG DIGUI-168 en temps réel avec AllMySat

Download on the App Store